Regional Weather Roundup
Issued by NWS Cleveland, OH

Home | Current Version | Previous Version | Graphics & Text | Print | Product List | Glossary On
Versions: 1 2 3 4 5 6 7 8 9 10 11 12 13 14 15 16 17 18 19 20 21 22 23 24 25 26 27 28 29 30 31 32 33 34 35 36 37 38 39 40 41 42 43 44 45 46 47 48 49 50
000
ASUS41 KCLE 221510
RWRCLE
OHIO REGIONAL WEATHER ROUNDUP
NATIONAL WEATHER SERVICE WILMINGTON, OH
1100 AM EDT FRI AUG 22 2014

NOTE: "FAIR" INDICATES FEW OR NO CLOUDS BELOW 12,000 FEET WITH NO
SIGNIFICANT WEATHER AND/OR OBSTRUCTIONS TO VISIBILITY.

OHZ001>008-015>018-024>027-034-035-043-044-221600-
   NORTHWEST OHIO

CITY           SKY/WX    TMP DP  RH WIND       PRES   REMARKS
DEFIANCE       CLOUDY    76  69  79 CALM      29.99S
FINDLAY        PTSUNNY   79  70  74 W6        29.99R
TOLEDO EXPRESS CLOUDY    76  70  82 S5        29.98S
TOLEDO METCALF CLOUDY    78  69  73 S5        29.99S
LIMA           CLOUDY    76  70  82 SW6       29.99F
$$

OHZ009>014-019>023-028>033-038-089-221600-
   NORTHEAST OHIO

CITY           SKY/WX    TMP DP  RH WIND       PRES   REMARKS
CLE-HOPKINS    PTSUNNY   77  71  82 N3        30.01S
CLE-LAKEFRONT  MOSUNNY   75  71  87 W3        29.97S
CUY CO. ARPT   CLOUDY    77  72  83 NW7       30.00F
LORAIN-ELYRIA  PTSUNNY   81  71  71 CALM      29.99F
ASHTABULA      CLOUDY    73  70  90 NW3       30.01S
AKRON-CANTON   PTSUNNY   73  69  87 SW7       30.01F
WOOSTER        MOSUNNY   79  71  76 SW3       30.01F
MANSFIELD      PTSUNNY   76  69  79 CALM      30.02F
YOUNGSTOWN     LGT RAIN  72  68  87 CALM      30.02S FOG
$$

OHZ042-051>053-060>062-070>072-077>081-221600-
  SOUTHWEST OHIO

CITY           SKY/WX    TMP DP  RH WIND       PRES   REMARKS
CINC-COVINGTON NOT AVBL
CINC-LUNKEN    CLOUDY    74  73  97 SW3       30.02F
HAMILTON       LGT RAIN  73  72  96 CALM      30.03S FOG
DAYTON         CLOUDY    74  71  91 W6        30.00F
WRIGHT-PAT AFB LGT RAIN  72  72 100 S3        29.99F
DAYTON GENERAL LGT RAIN  71  70  96 S7        30.00F FOG
WILMINGTON     LGT RAIN  72  70  93 NW3       30.02F FOG
$$

OHZ036-037-039>041-045>050-054>059-063>069-073>076-082>088-221600-
  CENTRAL AND SOUTHEAST OHIO

CITY           SKY/WX    TMP DP  RH WIND       PRES   REMARKS
COLUMBUS       CLOUDY    75  69  81 S5        30.02S
OSU AIRPORT    CLOUDY    74  70  87 S7        30.02S
BOLTON FIELD   NOT AVBL
RICKENBACK AFB CLOUDY    73  66  80 S5        30.02F
NEWARK         CLOUDY    75  70  84 S3        30.01F
MARION         PTSUNNY   76  69  79 SW5       30.01S
LANCASTER      CLOUDY    75  69  81 S3        30.03F
ZANESVILLE     CLOUDY    74  69  85 SW5       30.03S
NEW PHILLY     CLOUDY    74  71  91 CALM      30.02S
$$


USA.gov is the U.S. government's official web portal to all federal, state and local government web resources and services.